| time (UTC) | temp C | wind direction | speed KPH | gust KPH | rain 1hr cm | rain 24hr cm | rain mn cm | humidity % | barometer mb |
| 20260510032334 | 10 | 199 | 8.0 | 11.3 | 0.00 | 0.53 | 0.53 | 90 | 1006.9 |
| 20260510031823 | 10 | 204 | 6.4 | 9.7 | 0.00 | 0.53 | 0.53 | 90 | 1006.9 |
| 20260510031331 | 10 | 224 | 4.8 | 9.7 | 0.00 | 0.53 | 0.53 | 90 | 1006.8 |
| 20260510030819 | 10 | 227 | 6.4 | 9.7 | 0.00 | 0.53 | 0.53 | 90 | 1006.6 |
| 20260510030323 | 10 | 198 | 8.0 | 11.3 | 0.00 | 0.53 | 0.53 | 90 | 1006.5 |
| 20260510025832 | 10 | 206 | 8.0 | 11.3 | 0.00 | 0.53 | 0.53 | 90 | 1006.5 |
| 20260510025322 | 10 | 205 | 6.4 | 11.3 | 0.00 | 0.53 | 0.53 | 90 | 1006.5 |
| 20260510024832 | 10 | 220 | 4.8 | 8.0 | 0.00 | 0.53 | 0.53 | 89 | 1006.6 |
| 20260510024321 | 10 | 234 | 4.8 | 8.0 | 0.00 | 0.53 | 0.53 | 89 | 1006.5 |
| 20260510023829 | 10 | 217 | 4.8 | 9.7 | 0.00 | 0.53 | 0.53 | 89 | 1006.5 |
| 20260510023350 | 10 | 207 | 4.8 | 9.7 | 0.00 | 0.53 | 0.53 | 90 | 1006.5 |
| 20260510022833 | 10 | 209 | 4.8 | 9.7 | 0.00 | 0.53 | 0.53 | 89 | 1006.4 |
| 20260510022321 | 11 | 203 | 8.0 | 11.3 | 0.00 | 0.53 | 0.53 | 90 | 1006.5 |
| 20260510021831 | 11 | 210 | 4.8 | 11.3 | 0.00 | 0.53 | 0.53 | 90 | 1006.5 |
| 20260510021320 | 10 | 191 | 4.8 | 11.3 | 0.00 | 0.53 | 0.53 | 90 | 1006.6 |
| 20260510020828 | 10 | 213 | 6.4 | 11.3 | 0.00 | 0.53 | 0.53 | 90 | 1006.7 |
| 20260510020318 | 10 | 209 | 6.4 | 9.7 | 0.00 | 0.53 | 0.53 | 90 | 1006.7 |
| 20260510015846 | 10 | 211 | 4.8 | 9.7 | 0.00 | 0.53 | 0.53 | 90 | 1006.7 |
| 20260510015314 | 10 | 208 | 4.8 | 6.4 | 0.00 | 0.53 | 0.53 | 89 | 1006.7 |
| 20260510014819 | 10 | 224 | 3.2 | 6.4 | 0.00 | 0.53 | 0.53 | 89 | 1006.6 |
| 20260510014326 | 11 | 205 | 3.2 | 6.4 | 0.00 | 0.53 | 0.53 | 89 | 1006.5 |
| 20260510013815 | 11 | 200 | 4.8 | 8.0 | 0.00 | 0.53 | 0.53 | 88 | 1006.4 |
| 20260510013323 | 11 | 181 | 4.8 | 9.7 | 0.00 | 0.53 | 0.53 | 88 | 1006.5 |
| 20260510012832 | 11 | 196 | 6.4 | 9.7 | 0.00 | 0.53 | 0.53 | 88 | 1006.4 |
| 20260510012320 | 11 | 213 | 3.2 | 4.8 | 0.00 | 0.53 | 0.53 | 87 | 1006.5 |
| 20260510011828 | 11 | 262 | 3.2 | 8.0 | 0.00 | 0.53 | 0.53 | 86 | 1006.4 |
| 20260510011316 | 11 | 240 | 6.4 | 12.9 | 0.00 | 0.53 | 0.53 | 86 | 1006.3 |
| 20260510010820 | 11 | 218 | 6.4 | 19.3 | 0.00 | 0.53 | 0.53 | 86 | 1006.3 |
| 20260510010326 | 12 | 188 | 11.3 | 19.3 | 0.00 | 0.53 | 0.53 | 86 | 1006.4 |
| 20260510005815 | 12 | 190 | 8.0 | 17.7 | 0.00 | 0.53 | 0.53 | 86 | 1006.2 |
| 20260510005324 | 12 | 190 | 9.7 | 17.7 | 0.00 | 0.53 | 0.53 | 86 | 1006.1 |
| 20260510004813 | 12 | 171 | 6.4 | 16.1 | 0.00 | 0.53 | 0.53 | 87 | 1006.1 |
| 20260510004323 | 12 | 179 | 8.0 | 16.1 | 0.00 | 0.53 | 0.53 | 87 | 1006.1 |
| 20260510003824 | 12 | 178 | 6.4 | 14.5 | 0.00 | 0.53 | 0.53 | 87 | 1006.2 |
| 20260510003327 | 12 | 193 | 8.0 | 11.3 | 0.00 | 0.53 | 0.53 | 87 | 1006.2 |
| 20260510002817 | 12 | 199 | 3.2 | 8.0 | 0.00 | 0.53 | 0.53 | 87 | 1006.2 |
| 20260510002346 | 12 | 184 | 3.2 | 9.7 | 0.00 | 0.53 | 0.53 | 87 | 1006.1 |
| 20260510001815 | 12 | 209 | 8.0 | 9.7 | 0.00 | 0.53 | 0.53 | 87 | 1006.2 |
| 20260510001323 | 12 | 193 | 6.4 | 9.7 | 0.00 | 0.53 | 0.53 | 87 | 1006.2 |
| 20260510000828 | 12 | 208 | 6.4 | 9.7 | 0.00 | 0.53 | 0.53 | 87 | 1006.1 |
| 20260510000318 | 12 | 200 | 6.4 | 9.7 | 0.00 | 0.53 | 0.53 | 87 | 1006.0 |
| 20260509235824 | 12 | 188 | 3.2 | 6.4 | 0.00 | 0.53 | 0.53 | 87 | 1006.1 |
| 20260509235329 | 12 | 175 | 3.2 | 11.3 | 0.00 | 0.53 | 0.53 | 87 | 1006.0 |
| 20260509234830 | 12 | 155 | 8.0 | 11.3 | 0.00 | 0.53 | 0.53 | 86 | 1006.1 |
| 20260509234320 | 12 | 154 | 1.6 | 9.7 | 0.00 | 0.53 | 0.53 | 87 | 1005.9 |
| 20260509233828 | 12 | 187 | 4.8 | 11.3 | 0.00 | 0.53 | 0.53 | 87 | 1005.9 |
| 20260509233317 | 12 | 192 | 6.4 | 11.3 | 0.00 | 0.53 | 0.53 | 87 | 1005.8 |
| 20260509232826 | 12 | 208 | 6.4 | 11.3 | 0.00 | 0.53 | 0.53 | 87 | 1006.1 |
| 20260509232327 | 12 | 208 | 8.0 | 11.3 | 0.00 | 0.53 | 0.53 | 87 | 1005.9 |
| 20260509231817 | 12 | 205 | 3.2 | 9.7 | 0.00 | 0.53 | 0.53 | 87 | 1005.8 |
| 20260509231321 | 12 | 215 | 4.8 | 12.9 | 0.00 | 0.53 | 0.53 | 87 | 1005.7 |
| 20260509230832 | 12 | 205 | 4.8 | 14.5 | 0.00 | 0.53 | 0.53 | 87 | 1005.7 |
| 20260509230320 | 12 | 198 | 4.8 | 16.1 | 0.00 | 0.53 | 0.53 | 87 | 1005.4 |
| 20260509225827 | 12 | 202 | 9.7 | 16.1 | 0.00 | 0.53 | 0.53 | 87 | 1005.4 |
| 20260509225336 | 12 | 192 | 8.0 | 16.1 | 0.00 | 0.53 | 0.53 | 87 | 1005.4 |
| 20260509224841 | 12 | 193 | 12.9 | 17.7 | 0.00 | 0.53 | 0.53 | 87 | 1005.4 |
| 20260509224327 | 12 | 205 | 11.3 | 17.7 | 0.00 | 0.53 | 0.53 | 87 | 1005.6 |
| 20260509223818 | 12 | 191 | 8.0 | 11.3 | 0.00 | 0.53 | 0.53 | 87 | 1005.6 |
| 20260509223326 | 12 | 197 | 8.0 | 17.7 | 0.00 | 0.53 | 0.53 | 87 | 1005.6 |
| 20260509222816 | 12 | 209 | 8.0 | 17.7 | 0.00 | 0.53 | 0.53 | 87 | 1005.6 |
| 20260509222342 | 12 | 200 | 6.4 | 14.5 | 0.00 | 0.53 | 0.53 | 87 | 1005.5 |
| 20260509221831 | 12 | 200 | 8.0 | 12.9 | 0.00 | 0.53 | 0.53 | 87 | 1005.5 |
| 20260509221332 | 12 | 195 | 6.4 | 16.1 | 0.00 | 0.53 | 0.53 | 87 | 1005.6 |
| 20260509220834 | 12 | 217 | 8.0 | 19.3 | 0.00 | 0.53 | 0.53 | 87 | 1005.6 |
| 20260509220322 | 12 | 201 | 9.7 | 19.3 | 0.00 | 0.53 | 0.53 | 88 | 1005.5 |
| 20260509215833 | 12 | 198 | 11.3 | 17.7 | 0.00 | 0.53 | 0.53 | 88 | 1005.5 |
| 20260509215320 | 12 | 225 | 11.3 | 16.1 | 0.00 | 0.53 | 0.53 | 88 | 1005.6 |
| 20260509214829 | 12 | 209 | 4.8 | 24.1 | 0.00 | 0.53 | 0.53 | 88 | 1005.7 |
| 20260509214338 | 12 | 212 | 16.1 | 24.1 | 0.00 | 0.53 | 0.53 | 87 | 1005.8 |
| 20260509213847 | 12 | 190 | 11.3 | 20.9 | 0.00 | 0.53 | 0.53 | 87 | 1005.9 |
| 20260509213329 | 12 | 219 | 12.9 | 20.9 | 0.00 | 0.53 | 0.53 | 88 | 1006.0 |
| 20260509212818 | 12 | 202 | 8.0 | 17.7 | 0.00 | 0.53 | 0.53 | 88 | 1005.9 |
| 20260509212326 | 12 | 212 | 9.7 | 17.7 | 0.00 | 0.53 | 0.53 | 89 | 1005.9 |
| 20260509211815 | 12 | 198 | 8.0 | 14.5 | 0.00 | 0.53 | 0.53 | 90 | 1005.9 |
| 20260509211323 | 11 | 198 | 8.0 | 16.1 | 0.00 | 0.53 | 0.53 | 91 | 1006.0 |
| 20260509210831 | 11 | 219 | 8.0 | 16.1 | 0.00 | 0.53 | 0.53 | 91 | 1006.2 |
| 20260509210319 | 11 | 232 | 8.0 | 12.9 | 0.00 | 0.53 | 0.53 | 91 | 1006.1 |
| 20260509205826 | 11 | 190 | 4.8 | 14.5 | 0.00 | 0.53 | 0.53 | 91 | 1006.2 |
| 20260509205332 | 11 | 182 | 8.0 | 17.7 | 0.00 | 0.53 | 0.53 | 90 | 1006.2 |
| 20260509204821 | 11 | 217 | 9.7 | 17.7 | 0.00 | 0.53 | 0.53 | 90 | 1006.2 |
| 20260509204330 | 11 | 200 | 9.7 | 17.7 | 0.00 | 0.53 | 0.53 | 90 | 1006.3 |
| 20260509203818 | 11 | 174 | 4.8 | 14.5 | 0.00 | 0.53 | 0.53 | 89 | 1006.2 |
| 20260509203325 | 11 | 177 | 4.8 | 14.5 | 0.00 | 0.53 | 0.53 | 89 | 1006.2 |
| 20260509202814 | 11 | 201 | 8.0 | 14.5 | 0.00 | 0.53 | 0.53 | 89 | 1006.3 |
| 20260509202343 | 11 | 212 | 8.0 | 19.3 | 0.00 | 0.53 | 0.53 | 89 | 1006.3 |
| 20260509201827 | 11 | 205 | 11.3 | 19.3 | 0.00 | 0.53 | 0.53 | 90 | 1006.4 |
| 20260509201314 | 11 | 208 | 11.3 | 14.5 | 0.00 | 0.53 | 0.53 | 90 | 1006.3 |
| 20260509200823 | 11 | 165 | 4.8 | 17.7 | 0.00 | 0.53 | 0.53 | 90 | 1006.4 |
| 20260509200332 | 11 | 209 | 9.7 | 17.7 | 0.00 | 0.53 | 0.53 | 90 | 1006.4 |
| 20260509195823 | 11 | 198 | 11.3 | 16.1 | 0.00 | 0.53 | 0.53 | 90 | 1006.5 |
| 20260509195330 | 11 | 213 | 11.3 | 16.1 | 0.00 | 0.53 | 0.53 | 91 | 1006.5 |
| 20260509194819 | 11 | 181 | 9.7 | 12.9 | 0.00 | 0.53 | 0.53 | 91 | 1006.5 |
| 20260509194328 | 11 | 172 | 8.0 | 16.1 | 0.00 | 0.53 | 0.53 | 91 | 1006.6 |
| 20260509193815 | 11 | 200 | 9.7 | 16.1 | 0.00 | 0.53 | 0.53 | 91 | 1006.7 |
| 20260509193318 | 11 | 220 | 8.0 | 14.5 | 0.00 | 0.53 | 0.53 | 91 | 1006.8 |
| 20260509192828 | 11 | 184 | 8.0 | 16.1 | 0.00 | 0.53 | 0.53 | 91 | 1006.7 |
| 20260509192316 | 11 | 185 | 8.0 | 16.1 | 0.00 | 0.53 | 0.53 | 91 | 1006.8 |
| 20260509191824 | 11 | 205 | 11.3 | 16.1 | 0.00 | 0.53 | 0.53 | 91 | 1006.8 |
| 20260509191313 | 11 | 215 | 8.0 | 12.9 | 0.00 | 0.53 | 0.53 | 90 | 1006.9 |
| 20260509190835 | 11 | 188 | 9.7 | 16.1 | 0.00 | 0.53 | 0.53 | 90 | 1006.9 |
| 20260509190324 | 11 | 193 | 9.7 | 16.1 | 0.00 | 0.53 | 0.53 | 90 | 1006.9 |
| 20260509185829 | 11 | 202 | 6.4 | 16.1 | 0.00 | 0.53 | 0.53 | 89 | 1007.0 |
| 20260509185319 | 11 | 202 | 9.7 | 16.1 | 0.00 | 0.53 | 0.53 | 89 | 1007.0 |
| 20260509184849 | 11 | 207 | 8.0 | 19.3 | 0.00 | 0.53 | 0.53 | 89 | 1007.1 |
| 20260509184336 | 11 | 192 | 8.0 | 22.5 | 0.00 | 0.53 | 0.53 | 89 | 1007.0 |
| 20260509183819 | 11 | 182 | 11.3 | 22.5 | 0.00 | 0.53 | 0.53 | 89 | 1007.0 |
| 20260509183327 | 11 | 194 | 14.5 | 22.5 | 0.00 | 0.53 | 0.53 | 89 | 1007.0 |
| 20260509182817 | 11 | 158 | 12.9 | 22.5 | 0.00 | 0.53 | 0.53 | 89 | 1007.0 |
| 20260509182322 | 11 | 196 | 9.7 | 22.5 | 0.00 | 0.53 | 0.53 | 89 | 1007.0 |
| 20260509181828 | 11 | 196 | 11.3 | 22.5 | 0.00 | 0.53 | 0.53 | 90 | 1007.0 |
| 20260509181315 | 11 | 212 | 4.8 | 20.9 | 0.00 | 0.53 | 0.53 | 90 | 1007.0 |
| 20260509180843 | 11 | 197 | 8.0 | 20.9 | 0.00 | 0.53 | 0.53 | 90 | 1006.9 |
| 20260509180329 | 11 | 190 | 8.0 | 19.3 | 0.03 | 0.53 | 0.53 | 91 | 1006.9 |
| 20260509175817 | 11 | 196 | 8.0 | 22.5 | 0.03 | 0.53 | 0.53 | 91 | 1007.0 |
| 20260509175348 | 11 | 193 | 14.5 | 22.5 | 0.03 | 0.53 | 0.53 | 91 | 1006.9 |
| 20260509174814 | 11 | 206 | 14.5 | 19.3 | 0.03 | 0.53 | 0.53 | 92 | 1006.9 |
| 20260509174322 | 11 | 201 | 9.7 | 19.3 | 0.03 | 0.53 | 0.53 | 91 | 1006.9 |
| 20260509173832 | 11 | 212 | 6.4 | 17.7 | 0.03 | 0.53 | 0.53 | 92 | 1006.8 |
| 20260509173341 | 11 | 191 | 11.3 | 17.7 | 0.03 | 0.53 | 0.53 | 92 | 1006.8 |
| 20260509172827 | 11 | 173 | 6.4 | 16.1 | 0.03 | 0.53 | 0.53 | 92 | 1006.9 |
| 20260509172317 | 11 | 148 | 6.4 | 16.1 | 0.03 | 0.53 | 0.53 | 92 | 1006.9 |
| 20260509171826 | 11 | 194 | 11.3 | 19.3 | 0.03 | 0.53 | 0.53 | 92 | 1007.0 |
| 20260509171315 | 11 | 192 | 12.9 | 19.3 | 0.03 | 0.53 | 0.53 | 92 | 1007.0 |
| 20260509170820 | 11 | 164 | 8.0 | 20.9 | 0.05 | 0.53 | 0.53 | 92 | 1007.1 |
| 20260509170329 | 11 | 226 | 9.7 | 24.1 | 0.03 | 0.51 | 0.51 | 92 | 1007.1 |
| 20260509165817 | 11 | 205 | 11.3 | 25.7 | 0.03 | 0.51 | 0.51 | 92 | 1007.1 |
| 20260509165326 | 10 | 204 | 12.9 | 25.7 | 0.03 | 0.51 | 0.51 | 92 | 1007.2 |
| 20260509164814 | 11 | 84 | 6.4 | 20.9 | 0.03 | 0.51 | 0.51 | 92 | 1007.2 |
| 20260509164322 | 11 | 202 | 11.3 | 25.7 | 0.03 | 0.51 | 0.51 | 93 | 1007.3 |
| 20260509163830 | 10 | 198 | 11.3 | 25.7 | 0.03 | 0.58 | 0.51 | 93 | 1007.4 |
| 20260509163319 | 10 | 203 | 14.5 | 22.5 | 0.05 | 0.58 | 0.51 | 93 | 1007.4 |
| 20260509162823 | 10 | 201 | 12.9 | 20.9 | 0.05 | 0.58 | 0.51 | 93 | 1007.4 |
| 20260509162351 | 10 | 188 | 8.0 | 17.7 | 0.08 | 0.58 | 0.51 | 93 | 1007.5 |
| 20260509161839 | 10 | 182 | 9.7 | 19.3 | 0.08 | 0.58 | 0.51 | 93 | 1007.6 |
| 20260509161347 | 10 | 195 | 8.0 | 19.3 | 0.08 | 0.58 | 0.51 | 93 | 1007.7 |
| 20260509160816 | 10 | 173 | 4.8 | 17.7 | 0.05 | 0.56 | 0.48 | 94 | 1007.6 |
| 20260509160325 | 10 | 216 | 8.0 | 20.9 | 0.05 | 0.56 | 0.48 | 93 | 1007.8 |
| 20260509155820 | 10 | 189 | 14.5 | 20.9 | 0.08 | 0.56 | 0.48 | 93 | 1007.8 |
| 20260509155322 | 10 | 194 | 8.0 | 20.9 | 0.08 | 0.56 | 0.48 | 94 | 1007.9 |
| 20260509154824 | 10 | 194 | 8.0 | 16.1 | 0.08 | 0.56 | 0.48 | 94 | 1008.0 |
| 20260509154353 | 10 | 200 | 11.3 | 16.1 | 0.08 | 0.56 | 0.48 | 94 | 1008.1 |
| 20260509153821 | 10 | 189 | 6.4 | 14.5 | 0.10 | 0.61 | 0.48 | 94 | 1008.2 |
| 20260509153316 | 10 | 198 | 11.3 | 14.5 | 0.08 | 0.58 | 0.46 | 94 | 1008.3 |
| 20260509152842 | 10 | 228 | 8.0 | 11.3 | 0.08 | 0.58 | 0.46 | 94 | 1008.3 |
| 20260509152331 | 10 | 199 | 6.4 | 11.3 | 0.08 | 0.56 | 0.43 | 94 | 1008.4 |
| 20260509151817 | 9 | 202 | 6.4 | 16.1 | 0.08 | 0.56 | 0.43 | 94 | 1008.5 |
| 20260509151324 | 9 | 204 | 9.7 | 16.1 | 0.08 | 0.56 | 0.43 | 94 | 1008.5 |
| 20260509150814 | 9 | 235 | 9.7 | 16.1 | 0.08 | 0.56 | 0.43 | 94 | 1008.6 |
| 20260509150323 | 9 | 209 | 11.3 | 16.1 | 0.08 | 0.56 | 0.43 | 94 | 1008.6 |
| 20260509145831 | 9 | 189 | 6.4 | 11.3 | 0.05 | 0.53 | 0.41 | 95 | 1008.7 |
| 20260509145329 | 9 | 207 | 3.2 | 6.4 | 0.08 | 0.53 | 0.41 | 95 | 1008.7 |
| 20260509144847 | 8 | 219 | 3.2 | 6.4 | 0.08 | 0.53 | 0.41 | 95 | 1008.7 |
| 20260509144334 | 8 | 216 | 3.2 | 6.4 | 0.08 | 0.53 | 0.41 | 95 | 1008.8 |
| 20260509143822 | 8 | 219 | 3.2 | 4.8 | 0.05 | 0.51 | 0.38 | 95 | 1008.8 |
| 20260509143330 | 8 | 218 | 1.6 | 4.8 | 0.05 | 0.51 | 0.38 | 95 | 1008.7 |
| 20260509142837 | 8 | 233 | 1.6 | 6.4 | 0.08 | 0.51 | 0.38 | 95 | 1008.8 |
| 20260509142319 | 8 | 296 | 0.0 | 6.4 | 0.08 | 0.48 | 0.36 | 94 | 1008.8 |
| 20260509141819 | 8 | 293 | 3.2 | 4.8 | 0.08 | 0.48 | 0.36 | 95 | 1008.8 |
| 20260509141320 | 8 | 287 | 1.6 | 4.8 | 0.08 | 0.48 | 0.36 | 95 | 1008.8 |
| 20260509140830 | 8 | 230 | 1.6 | 3.2 | 0.10 | 0.48 | 0.36 | 95 | 1008.7 |
| 20260509140318 | 7 | 117 | 0.0 | 4.8 | 0.10 | 0.48 | 0.36 | 95 | 1008.8 |
| 20260509135826 | 7 | 137 | 1.6 | 8.0 | 0.10 | 0.48 | 0.36 | 94 | 1008.8 |
| 20260509135335 | 7 | 209 | 1.6 | 8.0 | 0.10 | 0.46 | 0.33 | 94 | 1008.9 |
| 20260509134823 | 7 | 119 | 1.6 | 8.0 | 0.10 | 0.46 | 0.33 | 94 | 1008.7 |
| 20260509134329 | 7 | 298 | 4.8 | 6.4 | 0.13 | 0.46 | 0.33 | 94 | 1008.8 |
| 20260509133815 | 7 | 277 | 3.2 | 4.8 | 0.13 | 0.46 | 0.33 | 94 | 1008.9 |
| 20260509133324 | 6 | 277 | 1.6 | 3.2 | 0.15 | 0.46 | 0.33 | 94 | 1008.9 |
| 20260509132832 | 6 | 277 | 1.6 | 3.2 | 0.13 | 0.43 | 0.30 | 94 | 1008.8 |
| 20260509132319 | 6 | 277 | 0.0 | 1.6 | 0.10 | 0.41 | 0.28 | 94 | 1008.9 |
| 20260509131827 | 6 | 277 | 0.0 | 1.6 | 0.13 | 0.41 | 0.28 | 94 | 1008.9 |
| 20260509131338 | 6 | 277 | 0.0 | 3.2 | 0.13 | 0.41 | 0.28 | 94 | 1008.9 |
| 20260509130820 | 6 | 277 | 0.0 | 4.8 | 0.13 | 0.38 | 0.25 | 94 | 1008.9 |
| 20260509130329 | 6 | 277 | 1.6 | 4.8 | 0.13 | 0.38 | 0.25 | 94 | 1008.8 |
| 20260509125816 | 6 | 277 | 3.2 | 4.8 | 0.13 | 0.38 | 0.25 | 94 | 1008.8 |
| 20260509125318 | 6 | 277 | 1.6 | 3.2 | 0.10 | 0.36 | 0.23 | 94 | 1008.7 |
| 20260509124846 | 6 | 277 | 1.6 | 3.2 | 0.10 | 0.36 | 0.23 | 94 | 1009.0 |
| 20260509124334 | 6 | 277 | 0.0 | 0.0 | 0.08 | 0.33 | 0.20 | 94 | 1009.1 |
| 20260509123823 | 5 | 277 | 0.0 | 1.6 | 0.08 | 0.33 | 0.20 | 94 | 1009.2 |
| 20260509123328 | 5 | 277 | 0.0 | 1.6 | 0.08 | 0.30 | 0.18 | 94 | 1009.3 |
| 20260509122815 | 5 | 277 | 0.0 | 1.6 | 0.08 | 0.30 | 0.18 | 94 | 1009.3 |
| 20260509122319 | 5 | 277 | 0.0 | 1.6 | 0.08 | 0.30 | 0.18 | 93 | 1009.3 |
| 20260509121827 | 5 | 277 | 1.6 | 3.2 | 0.05 | 0.28 | 0.15 | 93 | 1009.3 |
| 20260509121336 | 5 | 277 | 1.6 | 3.2 | 0.05 | 0.28 | 0.15 | 93 | 1009.4 |
| 20260509120837 | 5 | 277 | 3.2 | 3.2 | 0.03 | 0.25 | 0.13 | 93 | 1009.3 |
| 20260509120340 | 5 | 277 | 1.6 | 3.2 | 0.05 | 0.25 | 0.13 | 93 | 1009.3 |
| 20260509115820 | 5 | 277 | 1.6 | 3.2 | 0.05 | 0.25 | 0.13 | 94 | 1009.3 |
| 20260509115328 | 5 | 277 | 0.0 | 1.6 | 0.05 | 0.25 | 0.13 | 93 | 1009.3 |
| 20260509114836 | 5 | 277 | 0.0 | 1.6 | 0.05 | 0.25 | 0.13 | 93 | 1009.4 |
| 20260509114323 | 5 | 277 | 0.0 | 1.6 | 0.05 | 0.25 | 0.13 | 93 | 1009.4 |
| 20260509113831 | 5 | 277 | 0.0 | 1.6 | 0.05 | 0.25 | 0.13 | 93 | 1009.4 |
| 20260509113321 | 5 | 277 | 0.0 | 1.6 | 0.05 | 0.25 | 0.13 | 93 | 1009.4 |
| 20260509112826 | 5 | 277 | 0.0 | 1.6 | 0.03 | 0.23 | 0.10 | 93 | 1009.5 |
| 20260509112335 | 5 | 277 | 0.0 | 1.6 | 0.03 | 0.23 | 0.10 | 93 | 1009.5 |
| 20260509111826 | 5 | 277 | 0.0 | 1.6 | 0.03 | 0.23 | 0.10 | 93 | 1009.4 |
| 20260509111334 | 4 | 277 | 0.0 | 1.6 | 0.03 | 0.23 | 0.10 | 93 | 1009.2 |
| 20260509110821 | 4 | 277 | 0.0 | 1.6 | 0.03 | 0.23 | 0.10 | 93 | 1009.2 |
| 20260509110330 | 4 | 277 | 0.0 | 1.6 | 0.00 | 0.20 | 0.08 | 93 | 1009.2 |
| 20260509105817 | 4 | 277 | 0.0 | 3.2 | 0.00 | 0.20 | 0.08 | 92 | 1009.3 |
| 20260509105342 | 4 | 277 | 1.6 | 4.8 | 0.00 | 0.20 | 0.08 | 92 | 1009.3 |
| 20260509104823 | 4 | 277 | 1.6 | 3.2 | 0.00 | 0.20 | 0.08 | 92 | 1009.1 |
| 20260509104314 | 4 | 277 | 1.6 | 3.2 | 0.00 | 0.20 | 0.08 | 92 | 1009.1 |
| 20260509103841 | 4 | 277 | 0.0 | 1.6 | 0.00 | 0.20 | 0.08 | 92 | 1009.0 |
| 20260509103327 | 4 | 277 | 0.0 | 4.8 | 0.00 | 0.20 | 0.08 | 92 | 1009.0 |
| 20260509102818 | 4 | 277 | 0.0 | 4.8 | 0.00 | 0.20 | 0.08 | 92 | 1009.0 |
| 20260509102327 | 4 | 277 | 3.2 | 4.8 | 0.03 | 0.20 | 0.08 | 92 | 1009.0 |
| 20260509101830 | 4 | 277 | 0.0 | 3.2 | 0.03 | 0.20 | 0.08 | 92 | 1008.9 |
| 20260509101318 | 3 | 277 | 0.0 | 3.2 | 0.03 | 0.20 | 0.08 | 92 | 1008.9 |
| 20260509100826 | 3 | 277 | 0.0 | 3.2 | 0.03 | 0.20 | 0.08 | 92 | 1009.0 |
| 20260509100316 | 3 | 277 | 1.6 | 3.2 | 0.05 | 0.20 | 0.08 | 92 | 1009.0 |
| 20260509095819 | 3 | 277 | 3.2 | 3.2 | 0.05 | 0.20 | 0.08 | 92 | 1009.0 |
| 20260509095326 | 3 | 163 | 0.0 | 1.6 | 0.05 | 0.20 | 0.08 | 91 | 1009.0 |
| 20260509094847 | 3 | 163 | 0.0 | 3.2 | 0.08 | 0.20 | 0.08 | 91 | 1009.1 |
| 20260509094349 | 3 | 163 | 1.6 | 3.2 | 0.08 | 0.20 | 0.08 | 91 | 1009.2 |
| 20260509093817 | 3 | 157 | 0.0 | 4.8 | 0.08 | 0.23 | 0.08 | 91 | 1009.2 |
| 20260509093319 | 3 | 280 | 1.6 | 3.2 | 0.08 | 0.23 | 0.08 | 91 | 1009.2 |
| 20260509092827 | 3 | 284 | 0.0 | 0.0 | 0.08 | 0.23 | 0.08 | 91 | 1009.4 |
| 20260509092316 | 3 | 284 | 0.0 | 1.6 | 0.08 | 0.23 | 0.08 | 91 | 1009.6 |
| 20260509091824 | 3 | 284 | 0.0 | 3.2 | 0.05 | 0.20 | 0.05 | 90 | 1009.6 |
| 20260509091349 | 3 | 284 | 0.0 | 3.2 | 0.05 | 0.20 | 0.05 | 90 | 1009.6 |
| 20260509090818 | 3 | 284 | 1.6 | 3.2 | 0.05 | 0.20 | 0.05 | 90 | 1009.7 |
| 20260509090328 | 3 | 284 | 0.0 | 4.8 | 0.03 | 0.18 | 0.03 | 90 | 1009.6 |
| 20260509085835 | 3 | 284 | 3.2 | 4.8 | 0.03 | 0.18 | 0.03 | 90 | 1009.7 |
| 20260509085344 | 3 | 152 | 0.0 | 3.2 | 0.03 | 0.18 | 0.03 | 90 | 1009.6 |
| 20260509084830 | 3 | 153 | 0.0 | 3.2 | 0.00 | 0.15 | 0.00 | 90 | 1009.8 |
| 20260509084340 | 3 | 153 | 0.0 | 3.2 | 0.00 | 0.15 | 0.00 | 90 | 1009.8 |
| 20260509083824 | 3 | 153 | 1.6 | 3.2 | 0.00 | 0.15 | 0.00 | 90 | 1009.8 |
| 20260509083352 | 3 | 153 | 0.0 | 3.2 | 0.00 | 0.15 | 0.00 | 90 | 1009.8 |
| 20260509082841 | 3 | 152 | 0.0 | 3.2 | 0.00 | 0.15 | 0.00 | 90 | 1009.8 |
| 20260509082329 | 3 | 152 | 1.6 | 3.2 | 0.00 | 0.15 | 0.00 | 90 | 1009.8 |
| 20260509081818 | 3 | 153 | 1.6 | 3.2 | 0.00 | 0.15 | 0.00 | 90 | 1009.8 |
| 20260509081326 | 3 | 153 | 0.0 | 1.6 | 0.00 | 0.15 | 0.00 | 90 | 1009.9 |
| 20260509080816 | 3 | 153 | 0.0 | 1.6 | 0.00 | 0.15 | 0.00 | 90 | 1009.9 |
| 20260509080341 | 3 | 152 | 0.0 | 1.6 | 0.00 | 0.15 | 0.00 | 91 | 1009.9 |
| 20260509075848 | 2 | 152 | 0.0 | 3.2 | 0.00 | 0.15 | 0.00 | 90 | 1009.9 |
| 20260509075315 | 2 | 153 | 0.0 | 3.2 | 0.00 | 0.15 | 0.00 | 90 | 1009.8 |
| 20260509074843 | 2 | 153 | 0.0 | 1.6 | 0.00 | 0.15 | 0.00 | 90 | 1009.8 |
| 20260509074329 | 2 | 153 | 0.0 | 1.6 | 0.00 | 0.15 | 0.00 | 90 | 1009.7 |
| 20260509073820 | 2 | 152 | 0.0 | 1.6 | 0.00 | 0.15 | 0.00 | 90 | 1009.8 |
| 20260509073325 | 2 | 153 | 0.0 | 1.6 | 0.00 | 0.15 | 0.00 | 90 | 1009.8 |
| 20260509072813 | 2 | 152 | 0.0 | 1.6 | 0.00 | 0.15 | 0.00 | 90 | 1009.8 |
| 20260509072322 | 2 | 153 | 0.0 | 3.2 | 0.00 | 0.15 | 0.00 | 90 | 1009.8 |
| 20260509071831 | 2 | 152 | 0.0 | 3.2 | 0.00 | 0.15 | 0.00 | 90 | 1009.9 |
| 20260509071353 | 2 | 152 | 0.0 | 3.2 | 0.00 | 0.15 | 0.00 | 89 | 1009.9 |
| 20260509070821 | 2 | 152 | 1.6 | 3.2 | 0.00 | 0.15 | 0.00 | 89 | 1009.9 |
| 20260509070330 | 2 | 152 | 1.6 | 3.2 | 0.00 | 0.15 | 0.00 | 89 | 1010.0 |
| 20260509065815 | 2 | 153 | 1.6 | 3.2 | 0.00 | 0.15 | 0.00 | 89 | 1009.9 |
| 20260509065342 | 2 | 152 | 0.0 | 1.6 | 0.00 | 0.15 | 0.00 | 89 | 1009.9 |
| 20260509064850 | 2 | 153 | 0.0 | 1.6 | 0.00 | 0.15 | 0.00 | 90 | 1009.9 |
| 20260509064320 | 2 | 153 | 0.0 | 3.2 | 0.00 | 0.15 | 0.00 | 90 | 1010.0 |
| 20260509063829 | 2 | 152 | 1.6 | 3.2 | 0.00 | 0.15 | 0.00 | 89 | 1009.9 |
| 20260509063338 | 2 | 153 | 1.6 | 4.8 | 0.00 | 0.15 | 0.00 | 90 | 1010.0 |
| 20260509062821 | 2 | 153 | 3.2 | 4.8 | 0.00 | 0.15 | 0.00 | 89 | 1010.1 |
| 20260509062323 | 2 | 152 | 1.6 | 4.8 | 0.00 | 0.15 | 0.00 | 88 | 1010.1 |
| 20260509061831 | 2 | 153 | 1.6 | 3.2 | 0.00 | 0.15 | 0.00 | 88 | 1010.1 |
| 20260509061319 | 2 | 153 | 0.0 | 1.6 | 0.00 | 0.15 | 0.00 | 88 | 1010.3 |
| 20260509060826 | 2 | 152 | 0.0 | 1.6 | 0.00 | 0.15 | 0.00 | 89 | 1010.2 |
| 20260509060335 | 2 | 153 | 0.0 | 3.2 | 0.00 | 0.15 | 0.00 | 88 | 1010.2 |
| 20260509055821 | 2 | 153 | 0.0 | 3.2 | 0.00 | 0.15 | 0.00 | 87 | 1010.3 |
| 20260509055326 | 2 | 153 | 1.6 | 3.2 | 0.00 | 0.15 | 0.00 | 87 | 1010.4 |
| 20260509054836 | 3 | 152 | 0.0 | 0.0 | 0.00 | 0.15 | 0.00 | 88 | 1010.4 |
| 20260509054322 | 2 | 153 | 0.0 | 1.6 | 0.00 | 0.15 | 0.00 | 88 | 1010.4 |
| 20260509053831 | 3 | 153 | 0.0 | 1.6 | 0.00 | 0.15 | 0.00 | 87 | 1010.5 |
| 20260509053321 | 3 | 152 | 0.0 | 3.2 | 0.00 | 0.15 | 0.00 | 86 | 1010.4 |
| 20260509052832 | 3 | 153 | 0.0 | 3.2 | 0.00 | 0.15 | 0.00 | 86 | 1010.5 |
| 20260509052321 | 3 | 152 | 1.6 | 3.2 | 0.00 | 0.15 | 0.00 | 86 | 1010.6 |
| 20260509051829 | 3 | 153 | 0.0 | 0.0 | 0.00 | 0.15 | 0.00 | 87 | 1010.6 |
| 20260509051313 | 3 | 153 | 0.0 | 1.6 | 0.00 | 0.15 | 0.00 | 86 | 1010.7 |
| 20260509050822 | 3 | 152 | 0.0 | 1.6 | 0.00 | 0.15 | 0.00 | 86 | 1010.7 |
| 20260509050332 | 3 | 153 | 0.0 | 0.0 | 0.00 | 0.15 | 0.00 | 86 | 1010.7 |
| 20260509045821 | 3 | 153 | 0.0 | 1.6 | 0.00 | 0.15 | 0.00 | 85 | 1010.7 |
| 20260509045329 | 4 | 153 | 0.0 | 1.6 | 0.00 | 0.15 | 0.00 | 85 | 1010.6 |
| 20260509044840 | 4 | 152 | 0.0 | 1.6 | 0.00 | 0.15 | 0.00 | 84 | 1010.6 |
| 20260509044340 | 5 | 152 | 0.0 | 1.6 | 0.00 | 0.15 | 0.00 | 85 | 1010.8 |
| 20260509043825 | 5 | 153 | 0.0 | 0.0 | 0.00 | 0.15 | 0.15 | 85 | 1010.8 |
| 20260509043313 | 5 | 153 | 0.0 | 0.0 | 0.00 | 0.15 | 0.15 | 85 | 1010.8 |
| 20260509042823 | 5 | 152 | 0.0 | 3.2 | 0.00 | 0.15 | 0.15 | 84 | 1010.8 |
| 20260509042331 | 5 | 153 | 1.6 | 3.2 | 0.00 | 0.15 | 0.15 | 84 | 1010.7 |
| 20260509041821 | 5 | 153 | 0.0 | 1.6 | 0.00 | 0.15 | 0.15 | 84 | 1010.8 |
| 20260509041330 | 5 | 152 | 1.6 | 1.6 | 0.00 | 0.15 | 0.15 | 84 | 1010.8 |
| 20260509040819 | 5 | 153 | 0.0 | 0.0 | 0.00 | 0.15 | 0.15 | 84 | 1010.7 |
| 20260509040327 | 5 | 152 | 0.0 | 1.6 | 0.00 | 0.15 | 0.15 | 84 | 1010.7 |
| 20260509035827 | 5 | 153 | 0.0 | 1.6 | 0.00 | 0.15 | 0.15 | 85 | 1010.6 |
| 20260509035317 | 5 | 153 | 0.0 | 0.0 | 0.00 | 0.15 | 0.15 | 84 | 1010.7 |
| 20260509034819 | 5 | 153 | 0.0 | 3.2 | 0.00 | 0.15 | 0.15 | 84 | 1010.7 |
| 20260509034327 | 5 | 153 | 1.6 | 3.2 | 0.00 | 0.15 | 0.15 | 84 | 1010.8 |
| 20260509033837 | 5 | 153 | 0.0 | 0.0 | 0.00 | 0.15 | 0.15 | 84 | 1010.8 |
| 20260509033340 | 5 | 152 | 0.0 | 0.0 | 0.00 | 0.15 | 0.15 | 83 | 1010.8 |
| 20260509032826 | 5 | 153 | 0.0 | 3.2 | 0.00 | 0.15 | 0.15 | 83 | 1010.8 |